Regional Weather Roundup
Issued by NWS

Home | Current Version | Previous Version | Graphics & Text | Print | Product List | Glossary On
Versions: 1 2 3 4 5 6 7 8 9 10 11 12 13 14 15 16 17 18 19 20 21 22 23 24 25 26 27 28 29 30 31 32 33 34 35 36 37 38 39 40 41 42 43 44 45 46 47 48 49 50
000
ASUS43 KLSX 181507
RWRMO

WEATHER SUMMARY FOR MISSOURI
NATIONAL WEATHER SERVICE SPRINGFIELD MO
900 AM CST MON DEC 18 2017

NOTE: "FAIR" INDICATES FEW OR NO CLOUDS BELOW 12,000 FEET WITH NO
       SIGNIFICANT WEATHER AND/OR OBSTRUCTIONS TO VISIBILITY.
       CURRENT SKY AND/OR WEATHER CONDITIONS ARE NOT AVAILABLE FOR
       CHILLICOTHE AND FARMINGTON.

MOZ001>031-035>038-043-044-053-054-181600-
...NORTHERN AND WESTERN MISSOURI...

CITY           SKY/WX    TMP DP  RH WIND       PRES   REMARKS
KANSAS CTY INT FOG       37  37 100 SW12      30.07R VSB 1/4 WCI  29
KANSAS C DTWN  MOSUNNY   42  38  85 SW12G21   30.08R
LEE`S SUMMIT   CLOUDY    41  39  93 SW14      30.08R FOG
ST JOSEPH      MOSUNNY   35  35 100 S6        30.06R FOG
CHILLICOTHE      N/A     40  38  93 SW6       30.06R
KIRKSVILLE     PTSUNNY   41  38  89 W10       30.03R FOG

$$
MOZ066>068-077>081-088>096-101>105-181600-
...SOUTHWEST MISSOURI...

CITY           SKY/WX    TMP DP  RH WIND       PRES   REMARKS
SPRINGFIELD    CLOUDY    45  42  89 SW8       30.13S
JOPLIN         CLOUDY    44  43  96 SW12      30.16S
BRANSON        CLOUDY    45  39  81 W14       30.16S

$$
MOZ032>034-039>042-045>050-055>058-069>072-181600-
...CENTRAL MISSOURI...

CITY           SKY/WX    TMP DP  RH WIND       PRES   REMARKS
COLUMBIA       CLOUDY    45  43  93 SW14      30.08R
JEFFERSON CITY CLOUDY    47  42  83 SW10      30.10R
ROLLA          CLOUDY    44  41  89 SW12      30.11R
SEDALIA        CLOUDY    46  44  93 SW12      30.11R
WARRENSBURG    CLOUDY    43  41  93 SW14      30.09R
OSAGE BEACH    CLOUDY    45  41  86 SW5       30.12R

$$
MOZ051-052-059>065-181600-
...EAST CENTRAL MISSOURI...

CITY           SKY/WX    TMP DP  RH WIND       PRES   REMARKS
ST LOUIS INTL  DRIZZLE   47  42  83 SW14      30.09F
SPIRIT OF STL  CLOUDY    47  42  83 SW7       30.09R
ST CHARLES     CLOUDY    47  42  83 SW12      30.08R

$$
MOZ072>076-082>087-097>100-106>115-181600-
...SOUTH CENTRAL AND SOUTHEAST MISSOURI...

CITY           SKY/WX    TMP DP  RH WIND       PRES   REMARKS
CAPE GIRARDEAU CLOUDY    46  44  93 SW9       30.16R
FARMINGTON     CLOUDY    46  43  89 W6        30.13R
POPLAR BLUFF   FOG       45  45 100 SW9       30.17R VSB 3/4
WEST PLAINS    CLOUDY    45  41  86 W7        30.15R

$$



USA.gov is the U.S. government's official web portal to all federal, state and local government web resources and services.